A/2017 U7

Japanese version
Home page
Updated on October 28, 2018

---------------------------------------------------------------------

* Profile

Discovery Date October 29, 2017
Magnitude 20.1 mag
Discoverer Pan-STARRS 1 telescope (Haleakala)

* Pictures

* Orbital Elements

Epoch 2019 Aug. 25.0 TT = JDT 2458720.5
T 2019 Sept. 11.27159 TT                                MPCW
q   6.4173094            (2000.0)            P               Q
z  -0.0001195      Peri.  326.03188     +0.53149243     -0.59459714
 +/-0.0000010      Node   276.23302     -0.57729781     -0.77546596
e   1.0007668      Incl.  142.63526     -0.61987340     +0.21238356
From 122 observations 2017 Aug. 18-2018 Aug. 16, mean residual 0".3.

* Magnitudes Graph

        m1 = -12 + 5 log d + 30 log r

---------------------------------------------------------------------

The orbital elements are published on M.P.E.C. 2018-S50.
The magnitudes graphs are made with Comet for Windows.

---------------------------------------------------------------------

Copyright(C) Seiichi Yoshida (comet@aerith.net). All rights reserved.